When you browse on this site, cookies collect data to enhance your experience and personalize the content and advertising you see.
Visit our Privacy Policy to learn more. By continuing to use the site, you agree to this use of cookies and data.
  • In Latvia
  • List of Countries
  • For 7 days
  • Water Temperature
  • Satellite Maps
  • Weather Map
  • Weather Widgets
  • user-avatar
    Login

    Hourly Weather Nashua

    Today, 17 July, Wednesday

    Time Temperature Precipitation Wind Pressure Humidity
    00:00 +23°C° 0 mm 2 mps 756 mmHg 90%
    01:00 +24°C° 0 mm 2 mps 756 mmHg 88%
    02:00 +23°C° 0.2 mm 2 mps 756 mmHg 89%
    03:00 +23°C° 0.2 mm 2 mps 756 mmHg 90%
    04:00 +23°C° 0.2 mm 2 mps 755 mmHg 92%
    05:00 +24°C° 0 mm 2 mps 756 mmHg 88%
    06:00 +25°C° 0 mm 2 mps 756 mmHg 85%
    07:00 +26°C° 0 mm 2 mps 756 mmHg 82%
    08:00 +26°C° 0.1 mm 2 mps 756 mmHg 81%
    09:00 +27°C° 0.1 mm 2 mps 756 mmHg 80%
    10:00 +27°C° 0.1 mm 1 mps 756 mmHg 79%
    11:00 +28°C° 0.1 mm 2 mps 756 mmHg 73%
    12:00 +30°C° 0.1 mm 2 mps 755 mmHg 68%
    13:00 +31°C° 0.1 mm 2 mps 755 mmHg 62%
    14:00 +31°C° 0.3 mm 2 mps 755 mmHg 64%
    15:00 +31°C° 0.3 mm 3 mps 755 mmHg 65%
    16:00 +31°C° 0.3 mm 3 mps 754 mmHg 67%
    17:00 +29°C° 0.6 mm 3 mps 754 mmHg 74%
    18:00 +27°C° 0.6 mm 2 mps 755 mmHg 82%
    19:00 +25°C° 0.6 mm 2 mps 755 mmHg 90%
    20:00 +25°C° 0.2 mm 1 mps 755 mmHg 91%
    21:00 +24°C° 0.2 mm 1 mps 755 mmHg 91%
    22:00 +24°C° 0.2 mm 1 mps 756 mmHg 92%
    23:00 +24°C° 0 mm 1 mps 756 mmHg 92%

    Tomorrow, 18 July, Thursday

    Time Temperature Precipitation Wind Pressure Humidity
    00:00 +23°C° 0 mm 1 mps 756 mmHg 93%
    01:00 +23°C° 0 mm 1 mps 756 mmHg 93%
    02:00 +23°C° 0.3 mm 1 mps 756 mmHg 94%
    03:00 +23°C° 0.3 mm 1 mps 756 mmHg 95%
    04:00 +23°C° 0.3 mm 1 mps 756 mmHg 96%
    05:00 +21°C° 0.1 mm 2 mps 756 mmHg 96%
    06:00 +21°C° 0.1 mm 2 mps 756 mmHg 95%
    07:00 +21°C° 0.1 mm 3 mps 757 mmHg 94%
    08:00 +20°C° 0.2 mm 3 mps 757 mmHg 93%
    09:00 +20°C° 0.2 mm 3 mps 757 mmHg 92%
    10:00 +19°C° 0.2 mm 3 mps 757 mmHg 91%
    11:00 +19°C° 0.1 mm 3 mps 757 mmHg 90%
    12:00 +19°C° 0.1 mm 2 mps 757 mmHg 88%
    13:00 +19°C° 0.1 mm 2 mps 757 mmHg 87%
    14:00 +19°C° 0 mm 2 mps 757 mmHg 86%
    15:00 +19°C° 0 mm 2 mps 756 mmHg 85%
    16:00 +21°C° 0 mm 1 mps 756 mmHg 84%
    17:00 +21°C° 0 mm 1 mps 756 mmHg 84%
    18:00 +21°C° 0 mm 1 mps 756 mmHg 84%
    19:00 +21°C° 0 mm 1 mps 757 mmHg 85%
    20:00 +20°C° 0 mm 1 mps 757 mmHg 86%
    21:00 +20°C° 0 mm 1 mps 756 mmHg 87%
    22:00 +19°C° 0 mm 1 mps 756 mmHg 88%
    23:00 +20°C° 0 mm 1 mps 756 mmHg 87%

    Day after tomorrow, 19 July, Friday

    Time Temperature Precipitation Wind Pressure Humidity
    00:00 +20°C° 0 mm 1 mps 756 mmHg 86%
    01:00 +20°C° 0 mm 1 mps 756 mmHg 85%
    02:00 +18°C° 0 mm 0 mps 756 mmHg 88%
    03:00 +17°C° 0 mm 0 mps 756 mmHg 92%
    04:00 +17°C° 0 mm 0 mps 756 mmHg 95%
    05:00 +18°C° 0 mm 0 mps 756 mmHg 90%
    06:00 +22°C° 0 mm 1 mps 756 mmHg 85%
    07:00 +24°C° 0 mm 1 mps 756 mmHg 80%
    08:00 +26°C° 0 mm 1 mps 756 mmHg 73%
    09:00 +29°C° 0 mm 1 mps 755 mmHg 66%
    10:00 +31°C° 0 mm 2 mps 755 mmHg 60%
    11:00 +32°C° 0 mm 2 mps 755 mmHg 54%
    12:00 +35°C° 0 mm 3 mps 754 mmHg 49%
    13:00 +36°C° 0 mm 3 mps 754 mmHg 44%
    14:00 +37°C° 0 mm 3 mps 754 mmHg 44%
    15:00 +37°C° 0 mm 3 mps 753 mmHg 44%
    16:00 +37°C° 0 mm 3 mps 753 mmHg 45%
    17:00 +35°C° 0 mm 3 mps 753 mmHg 53%
    18:00 +33°C° 0 mm 3 mps 753 mmHg 61%
    19:00 +30°C° 0 mm 2 mps 753 mmHg 70%
    20:00 +30°C° 0 mm 2 mps 753 mmHg 71%
    21:00 +29°C° 0 mm 3 mps 753 mmHg 73%
    22:00 +28°C° 0 mm 3 mps 753 mmHg 75%
    23:00 +28°C° 0 mm 3 mps 753 mmHg 76%

    20 July, Saturday

    Time Temperature Precipitation Wind Pressure Humidity
    00:00 +28°C° 0 mm 3 mps 753 mmHg 76%
    01:00 +28°C° 0 mm 2 mps 752 mmHg 77%
    02:00 +28°C° 0 mm 2 mps 752 mmHg 79%
    03:00 +28°C° 0 mm 2 mps 752 mmHg 80%
    04:00 +27°C° 0 mm 2 mps 752 mmHg 82%
    05:00 +28°C° 0 mm 2 mps 753 mmHg 79%
    06:00 +29°C° 0 mm 2 mps 753 mmHg 76%
    07:00 +30°C° 0 mm 2 mps 754 mmHg 73%
    08:00 +32°C° 0 mm 2 mps 754 mmHg 63%
    09:00 +35°C° 0 mm 2 mps 754 mmHg 53%
    10:00 +37°C° 0 mm 2 mps 754 mmHg 44%
    11:00 +39°C° 0 mm 2 mps 753 mmHg 39%
    12:00 +40°C° 0 mm 3 mps 752 mmHg 35%
    13:00 +42°C° 0 mm 3 mps 752 mmHg 30%
    14:00 +42°C° 0 mm 4 mps 752 mmHg 32%
    15:00 +42°C° 0 mm 4 mps 751 mmHg 34%
    16:00 +42°C° 0 mm 4 mps 751 mmHg 36%
    17:00 +38°C° 0.1 mm 4 mps 751 mmHg 47%
    18:00 +36°C° 0.1 mm 3 mps 751 mmHg 57%
    19:00 +32°C° 0.1 mm 2 mps 751 mmHg 67%
    20:00 +31°C° 0.6 mm 3 mps 752 mmHg 70%
    21:00 +30°C° 0.6 mm 3 mps 752 mmHg 74%
    22:00 +29°C° 0.6 mm 4 mps 753 mmHg 77%
    23:00 +28°C° 0 mm 3 mps 752 mmHg 76%

    21 July, Sunday

    Time Temperature Precipitation Wind Pressure Humidity
    00:00 +27°C° 0 mm 2 mps 752 mmHg 76%
    01:00 +26°C° 0 mm 1 mps 751 mmHg 75%
    02:00 +26°C° 0 mm 1 mps 751 mmHg 77%
    03:00 +26°C° 0 mm 1 mps 751 mmHg 78%
    04:00 +25°C° 0 mm 2 mps 752 mmHg 80%
    05:00 +26°C° 0.1 mm 2 mps 752 mmHg 78%
    06:00 +27°C° 0.1 mm 2 mps 752 mmHg 77%
    07:00 +28°C° 0.1 mm 3 mps 753 mmHg 75%
    08:00 +31°C° 0.1 mm 3 mps 752 mmHg 66%
    09:00 +34°C° 0.1 mm 2 mps 752 mmHg 56%
    10:00 +36°C° 0.1 mm 2 mps 752 mmHg 47%
    11:00 +37°C° 0 mm 3 mps 752 mmHg 46%
    12:00 +38°C° 0 mm 3 mps 751 mmHg 45%
    13:00 +39°C° 0 mm 3 mps 751 mmHg 44%
    14:00 +38°C° 0.1 mm 4 mps 751 mmHg 47%
    15:00 +37°C° 0.1 mm 5 mps 751 mmHg 50%
    16:00 +36°C° 0.1 mm 6 mps 751 mmHg 52%
    17:00 +34°C° 0.3 mm 5 mps 751 mmHg 61%
    18:00 +32°C° 0.3 mm 4 mps 751 mmHg 70%
    19:00 +28°C° 0.3 mm 3 mps 751 mmHg 79%
    20:00 +28°C° 0 mm 3 mps 751 mmHg 81%
    21:00 +27°C° 0 mm 3 mps 751 mmHg 82%
    22:00 +27°C° 0 mm 2 mps 751 mmHg 83%
    23:00 +26°C° 0 mm 2 mps 751 mmHg 82%

    22 July, Monday

    Time Temperature Precipitation Wind Pressure Humidity
    00:00 +25°C° 0 mm 2 mps 752 mmHg 82%
    01:00 +25°C° 0 mm 2 mps 752 mmHg 81%
    02:00 +24°C° 0 mm 2 mps 752 mmHg 78%
    03:00 +24°C° 0 mm 2 mps 752 mmHg 75%
    04:00 +23°C° 0 mm 2 mps 752 mmHg 72%
    05:00 +24°C° 0 mm 2 mps 752 mmHg 69%
    06:00 +25°C° 0 mm 2 mps 753 mmHg 66%
    07:00 +26°C° 0 mm 2 mps 753 mmHg 63%
    08:00 +26°C° 0 mm 2 mps 753 mmHg 60%
    09:00 +26°C° 0 mm 2 mps 753 mmHg 57%
    10:00 +27°C° 0 mm 3 mps 754 mmHg 54%
    11:00 +26°C° 0 mm 3 mps 754 mmHg 58%
    12:00 +24°C° 0 mm 3 mps 754 mmHg 61%
    13:00 +22°C° 0 mm 3 mps 754 mmHg 64%
    14:00 +23°C° 0.1 mm 2 mps 754 mmHg 67%
    15:00 +23°C° 0.1 mm 2 mps 754 mmHg 70%
    16:00 +22°C° 0.1 mm 1 mps 754 mmHg 73%
    17:00 +22°C° 0 mm 1 mps 754 mmHg 74%
    18:00 +22°C° 0 mm 1 mps 754 mmHg 75%
    19:00 +22°C° 0 mm 1 mps 754 mmHg 77%
    20:00 +21°C° 0 mm 1 mps 754 mmHg 77%
    21:00 +20°C° 0 mm 1 mps 754 mmHg 78%
    22:00 +20°C° 0 mm 1 mps 754 mmHg 78%
    23:00 +19°C° 0 mm 1 mps 754 mmHg 79%
    Show more